Regional Weather Roundup
Issued by NWS

Home | Current Version | Previous Version | Text Only | Print | Product List | Glossary On
Versions: 1 2 3 4 5 6 7 8 9 10 11 12 13 14 15 16 17 18 19 20 21 22 23 24 25 26 27 28 29 30 31 32 33 34 35 36 37 38 39 40 41 42 43 44 45 46 47 48 49 50
832
ASUS44 KJAN 300803
RWRMS

MISSISSIPPI HOURLY WEATHER ROUNDUP
NATIONAL WEATHER SERVICE JACKSON MS
200 AM CST FRI JAN 30 2015

NOTE: "FAIR: INDICATES FEW OR NO CLOUDS BELOW 12,000 FEET WITH NO
SIGNIFICANT WEATHER AND/OR OBSTRUCTIONS TO VISIBILITY.

MSZ001>002-007>008-010>013-018>021-025>028-034>036-300900-
NORTHWEST MISSISSIPPI

CITY           SKY/WX    TMP DP  RH WIND       PRES   REMARKS
CLARKSDALE     FAIR      36  32  87 NW6       30.44S WCI  31
CLEVELAND      FAIR      38  33  85 N5        30.43S WCI  34
GREENWOOD      CLEAR     39  31  72 N5        30.41R
GREENVILLE     PTCLDY    37  31  78 N8        30.43R WCI  31
GRENADA        FAIR      41  30  65 NE7       30.42R
OLIVE BRANCH   MOCLDY    39  32  75 N13       30.42R WCI  32
OXFORD         FAIR      36  27  69 N5        30.41S WCI  32
TUNICA         SUNNY     34  30  86 NW8       30.44S WCI  27
$$

MSZ003>006-009-014>017-022>024-029>033-037>039-300900-
NORTHEAST MISSISSIPPI

CITY           SKY/WX    TMP DP  RH WIND       PRES   REMARKS
COLUMBUS AFB   CLOUDY    43  29  57 N16       30.37S
CORINTH        CLOUDY    43  28  56 N13G22    30.37S
GOLDN TRIANGLE PTCLDY    41  28  60 N13G20    30.36S
STARKVILLE     CLOUDY    43  32  65 N9G17     30.37S
TUPELO         PTCLDY    41  28  60 N10       30.38S
$$

MSZ040-058-300900-
CENTRAL MISSISSIPPI

CITY           SKY/WX    TMP DP  RH WIND       PRES   REMARKS
JACKSON INTL   CLEAR     42  34  73 N10       30.37R
JACKSON HAWKNS CLEAR     42  33  70 N6        30.38S
MERIDIAN KEY   CLEAR     45  35  68 N13       30.33R
MERIDIAN NAS   MOCLDY    46  34  62 N18G26    30.34R
RAYMOND        FAIR      41  37  87 MISG      30.38F
VICKSBURG      CLEAR     43  33  68 N14       30.41S
$$

MSZ059>079-300900-
SOUTH MISSISSIPPI

CITY           SKY/WX    TMP DP  RH WIND       PRES   REMARKS
BROOKHAVEN     FAIR      45  37  76 N8        30.36R
HATTIESBURG    CLEAR     54  41  61 N10       30.30R
MCCOMB         PTCLDY    50  39  66 N12       30.32R
NATCHEZ        PTCLDY    45  34  65 N13G18    30.38S
PINE BELT      CLEAR     52  37  58 N15G25    30.31R
$$

MSZ080>082-300900-
COASTAL MISSISSIPPI

CITY           SKY/WX    TMP DP  RH WIND       PRES   REMARKS
BILOXI         CLOUDY    59  52  78 N8        30.24R
PASCAGOULA     MOCLDY    58  53  84 N12       30.23R
GULFPORT       CLOUDY    57  51  80 N8        30.24R
$$



USA.gov is the U.S. government's official web portal to all federal, state and local government web resources and services.